Regional Weather Roundup
Issued by NWS

Home | Current Version | Previous Version | Text Only | Print | Product List | Glossary On
Versions: 1 2 3 4 5 6 7 8 9 10 11 12 13 14 15 16 17 18 19 20 21 22 23 24 25 26 27
000
ASUS42 KFFC 241003
RWRGA
WEATHER ROUNDUP FOR GEORGIA
NATIONAL WEATHER SERVICE PEACHTREE CITY GA
600 AM EDT FRI OCT 24 2014

NOTE: "FAIR" INDICATES FEW OR NO CLOUDS BELOW 12,000 FEET WITH NO
SIGNIFICANT WEATHER AND/OR OBSTRUCTIONS TO VISIBILITY.

* = USE WITH CAUTION. THE STATIONS MARKED WITH AN ASTERISK MAY NOT
REPORT WEATHER SUCH AS PRECIPITATION, FOG, OR THUNDER AND ARE NOT
QUALITY CONTROLLED BY NWS.

THE REMARK "TC" DENOTES TEMPERATURE READING IN DEGREES CELSIUS.

GAZ001>058-241100-
NORTH GEORGIA

CITY           SKY/WX    TMP DP  RH WIND       PRES   REMARKS
ATLANTA        CLOUDY    50  44  80 N6        30.05R
ATHENS         MOCLDY    46  44  93 CALM      30.05R
CHAMBLEE       CLOUDY    49  44  83 N5        30.06R
PEACHTREE CITY MOCLDY    45  43  93 CALM      30.05S
ROME           CLOUDY    51  45  79 N6        30.05S
WEST ATLANTA   CLOUDY    49  44  83 NE3       30.06R
GAINESVILLE    CLOUDY    51  44  77 CALM      30.07R
CARTERSVILLE   CLOUDY    47  43  86 CALM      30.07F


CITY           SKY/WX    TMP DP  RH WIND       PRES   REMARKS
DALTON*        CLOUDY    48  45  87 N3        30.08R
MARIETTA       CLOUDY    49  45  85 N2        30.05S
$$

GAZ059>098-102>109-241100-
CENTRAL GEORGIA

CITY           SKY/WX    TMP DP  RH WIND       PRES   REMARKS
AUGUSTA-BUSH   MOCLDY    44  43  96 CALM      30.04R
AUGUSTA-DANIEL MOCLDY    54  45  71 NW5       30.04R
COLUMBUS       CLOUDY    52  45  77 CALM      30.04S
MACON          CLOUDY    46  46 100 W3        30.04R
ROBINS AFB     CLOUDY    48  46  95 N5        30.04R


CITY           SKY/WX    TMP DP  RH WIND       PRES   REMARKS
LAGRANGE*      CLOUDY    47  47  97 CALM      30.05F
SYLVANIA*      MOCLDY    49  48  97 CALM      30.04R
MILLEDGEVILLE* CLOUDY    52  52 100 CALM      30.04R
$$

GAZ099>101-110>166-241100-
SOUTH GEORGIA

CITY           SKY/WX    TMP DP  RH WIND       PRES   REMARKS
SAVANNAH       MOCLDY    51  46  83 CALM      30.04R
VALDOSTA       PTCLDY    46  43  89 CALM      30.03R
ALMA           MOCLDY    47  46  97 CALM      30.03R FOG
ST SIMONS      PTCLDY    51  51 100 CALM      30.02S
ALBANY         CLOUDY    52  49  89 CALM      30.06R
HUNTER AFB     MOCLDY    48  47  95 W1        30.01R
MOODY AFB      PTCLDY    47  45  91 CALM      30.03R
BRUNSWICK      PTCLDY    50  46  87 CALM      30.03S


CITY           SKY/WX    TMP DP  RH WIND       PRES   REMARKS
BAINBRIDGE*    MOCLDY    54  52  94 CALM      30.04R
MOULTRIE*      CLOUDY    50  50 100 CALM      30.03F
VIDALIA*       MOCLDY    50  46  87 CALM      30.04R
WAYCROSS*      MOCLDY    50  49  97 CALM      30.03S
DOUGLAS*       MOCLDY    52  50  93 CALM      30.05S
$$



USA.gov is the U.S. government's official web portal to all federal, state and local government web resources and services.